[[{"header":{"parameterUnit":"m.s-1","parameterCategory":1,"la1":30.2992,"la2":30.254,"lo1":-89.0895,"lo2":-89.0443,"dy":0.0025,"dx":0.0025,"nx":19,"ny":19,"refTime":"2026-05-24T09:00:00:Z","depth":0,"parameterNumber":2,"parameterNumberName":"U-component_of_WINDS"},"data":[0,0,0,-4.2979,-4.2984,-4.3251,-4.3252,-4.3576,-4.3579,0,0,0,0,0,0,0,0,0,0,0,-4.2887,-4.2888,-4.2978,-4.2985,-4.3251,-4.3252,-4.3576,-4.3579,0,0,0,0,0,0,0,0,0,0,0,-4.2886,-4.2888,-4.289,-4.2986,-4.325,-4.3252,-4.3575,-4.3381,0,0,0,0,0,0,0,0,0,0,-4.3125,-4.3026,-4.2888,-4.289,-4.2987,-4.325,-4.3252,-4.3372,-4.3393,-4.3448,0,-4.349,0,-4.3539,-4.3599,-4.36,0,0,0,-4.2996,-4.3009,-4.3092,-4.289,-4.2989,-4.325,-4.3134,-4.3384,-4.3408,-4.3476,-4.3494,-4.3507,-4.3544,-4.3601,-4.3603,-4.3873,-4.3874,0,0,-4.2981,-4.2928,-4.3075,-4.3107,-4.3061,-4.3125,-4.3142,-4.3399,-4.3417,-4.3496,-4.3515,-4.355,-4.3603,-4.3606,-4.3873,-4.3874,0,0,0,-4.2931,-4.2917,-4.2995,-4.3093,-4.3142,-4.3133,-4.3152,-4.3406,-4.3435,-4.3519,-4.3554,-4.3605,-4.3609,-4.3872,-4.3873,-4.3856,0,0,0,-4.2923,-4.2889,-4.2988,-4.2959,-4.3137,-4.3276,-4.3153,-4.3417,-4.3448,-4.3552,-4.3605,-4.3612,-4.3871,-4.3873,-4.3854,-4.3856,0,0,0,-4.2874,-4.2883,-4.2917,-4.2955,-4.3068,-4.3273,-4.3318,-4.3425,-4.3469,-4.3601,-4.3613,-4.3871,-4.3872,-4.3853,-4.3854,-4.391,0,0,0,-4.2807,-4.29,-4.2915,-4.3033,-4.3065,-4.326,-4.3317,-4.3467,-4.3578,-4.3607,-4.3871,-4.3873,-4.3853,-4.3853,-4.3908,-4.3944,-4.3955,0,0,-4.2895,-4.2909,-4.2982,-4.3004,-4.3182,-4.3224,-4.3403,-4.3556,-4.3619,-4.3786,-4.3793,-4.3855,-4.3854,-4.3909,-4.4038,-4.4046,0,0,0,-4.2992,-4.3044,-4.3103,-4.3204,-4.3322,-4.3424,-4.3555,-4.3613,-4.3756,-4.3693,-4.3893,-4.3895,-4.3929,-4.3949,-4.3955,-4.3988,-4.388,-4.388,-4.388,-4.3039,-4.3112,-4.3239,-4.3344,-4.3443,-4.3577,-4.3664,-4.3765,-4.3813,-4.3859,-4.3908,-4.3977,-4.3998,-4.4003,-4.4036,-4.3936,-4.3936,-4.3936,-4.3936,-4.3172,-4.3256,-4.3316,-4.3459,-4.3537,-4.3661,-4.3796,-4.3825,-4.3953,-4.3946,-4.398,-4.3964,-4.4009,-4.4042,-4.3935,-4.3935,-4.3935,-4.3936,-4.3936,-4.3208,-4.3261,-4.3327,-4.3481,-4.3593,-4.37,-4.3818,-4.3887,-4.3954,-4.3988,-4.4046,-4.4046,-4.4054,-4.4011,-4.4012,-4.4012,-4.4012,-4.4012,-4.4012,-4.3217,-4.3293,-4.3382,-4.3515,-4.3589,-4.3697,-4.3835,-4.3911,-4.4014,-4.4055,-4.4056,-4.4097,-4.4001,-4.3973,-4.4016,-4.4016,-4.4015,-4.4015,-4.4014,-4.3319,-4.3307,-4.3444,-4.3518,-4.3681,-4.3787,-4.3874,-4.4024,-4.4098,-4.4154,-4.4191,-4.4109,-4.4128,-4.4124,-4.4101,-4.4175,-4.4175,-4.4175,-4.4175,-4.3347,-4.3364,-4.3519,-4.3633,-4.3754,-4.3846,-4.4002,-4.4112,-4.4224,-4.4274,-4.4275,-4.4252,-4.4244,-4.4269,-4.4261,-4.4241,-4.4349,-4.4349,-4.4349,-4.3413,-4.3444,-4.3561,-4.3667,-4.38,-4.3913,-4.4061,-4.4192,-4.4318,-4.4358,-4.4315,-4.4308,-4.4272,-4.4257,-4.4291,-4.4277,-4.4242,0,0]},{"header":{"parameterUnit":"m.s-1","parameterCategory":1,"la1":30.2992,"la2":30.254,"lo1":-89.0895,"lo2":-89.0443,"dy":0.0025,"dx":0.0025,"nx":19,"ny":19,"refTime":"2026-05-24T09:00:00:Z","depth":0,"parameterNumber":3,"parameterNumberName":"V-component_of_WINDS"},"data":[0,0,0,6.4008,6.4007,6.3941,6.3941,6.389,6.3889,0,0,0,0,0,0,0,0,0,0,0,6.4049,6.405,6.4008,6.4007,6.3941,6.3941,6.389,6.3889,0,0,0,0,0,0,0,0,0,0,0,6.4049,6.405,6.405,6.4007,6.3942,6.3941,6.389,6.3927,0,0,0,0,0,0,0,0,0,0,6.3985,6.4045,6.4049,6.405,6.4007,6.3942,6.3941,6.3928,6.3925,6.3934,0,6.395,0,6.3919,6.3888,6.3888,0,0,0,6.399,6.4048,6.4011,6.405,6.4006,6.3942,6.3966,6.3926,6.3922,6.3929,6.3949,6.3946,6.3918,6.3888,6.3888,6.4001,6.4002,0,0,6.3994,6.4049,6.4014,6.401,6.4024,6.3968,6.3964,6.3923,6.3947,6.3948,6.3944,6.3917,6.3888,6.3888,6.3999,6.4001,0,0,0,6.4015,6.4052,6.4015,6.4013,6.3998,6.3967,6.3962,6.3949,6.3932,6.3943,6.3917,6.3888,6.3888,6.3998,6.4,6.4119,0,0,0,6.4017,6.4065,6.4017,6.4051,6.4,6.3973,6.399,6.3935,6.3928,6.3917,6.3888,6.3888,6.3996,6.3999,6.4112,6.4166,0,0,0,6.4046,6.4068,6.4066,6.4054,6.4028,6.3973,6.3953,6.3932,6.3913,6.3888,6.3887,6.3995,6.3998,6.4106,6.4156,6.421,0,0,0,6.4093,6.4173,6.4069,6.4148,6.4029,6.4048,6.3953,6.3963,6.3956,6.3888,6.3996,6.4,6.4105,6.415,6.4205,6.4266,6.4297,0,0,6.4225,6.4191,6.4233,6.4138,6.419,6.4053,6.4121,6.4061,6.4007,6.4005,6.4007,6.4114,6.4155,6.4209,6.4453,6.4478,0,0,0,6.4293,6.4324,6.4326,6.4322,6.4279,6.4245,6.417,6.4147,6.4142,6.4018,6.4147,6.417,6.4199,6.4226,6.4247,6.4268,6.4015,6.4014,6.4014,6.456,6.4487,6.4551,6.447,6.4467,6.4388,6.4378,6.4333,6.426,6.4292,6.4291,6.4448,6.4482,6.4497,6.452,6.4318,6.4318,6.4319,6.4319,6.4745,6.4777,6.4678,6.4705,6.4627,6.4647,6.4572,6.452,6.4526,6.4443,6.4465,6.4381,6.4527,6.4543,6.4327,6.4326,6.4325,6.4324,6.4323,6.4911,6.4914,6.4885,6.4871,6.4868,6.4782,6.4792,6.472,6.4652,6.4674,6.4664,6.4661,6.4649,6.4674,6.4675,6.4675,6.4676,6.4676,6.4676,6.5095,6.5059,6.5078,6.5038,6.5025,6.4998,6.4917,6.4901,6.4865,6.4811,6.4811,6.4734,6.4556,6.4512,6.4685,6.4683,6.4682,6.4681,6.4681,6.531,6.5249,6.5279,6.5266,6.5212,6.5212,6.5119,6.5093,6.5069,6.5076,6.4993,6.4873,6.4833,6.4816,6.4779,6.501,6.501,6.501,6.501,6.545,6.5422,6.5435,6.5419,6.5394,6.5313,6.5345,6.5282,6.5206,6.5186,6.5142,6.5087,6.5072,6.504,6.5018,6.4982,6.526,6.5261,6.5261,6.5577,6.5544,6.5587,6.5514,6.5466,6.5425,6.5452,6.5435,6.5336,6.5269,6.5168,6.5158,6.5068,6.5043,6.4976,6.4943,6.4876,0,0]}]]